Regional Weather Roundup
Issued by NWS

Home | Current Version | Previous Version | Text Only | Print | Product List | Glossary Off
Versions: 1 2 3 4 5 6 7 8 9 10 11 12 13 14 15 16 17 18 19 20 21 22 23 24 25 26 27 28 29 30 31 32 33 34 35 36 37 38 39 40 41 42 43 44 45 46 47 48 49 50

375
ASUS43 KDTX 231801
RWRMI
MICHIGAN HOURLY REGIONAL WEATHER ROUNDUP
NATIONAL WEATHER SERVICE DETROIT/PONTIAC MI
200 PM EDT MON MAY 23 2016

NOTE: "FAIR" INDICATES FEW OR NO CLOUDS BELOW 12,000 FEET WITH NO
SIGNIFICANT WEATHER AND/OR OBSTRUCTION TO VISIBILITY.

MIZ047>049-052>055-059>063-066>070-074>076-081>083-231900-
SOUTHEAST LOWER MICHIGAN

CITY           SKY/WX    TMP DP  RH WIND       PRES   REMARKS
ADRIAN         SUNNY     73  34  23 VRB3      30.06F
6HR MIN TEMP:  48; 6HR MAX TEMP:  73;

ALMA           SUNNY     74  40  28 SW5       30.05F
ANN ARBOR      SUNNY     73  33  23 VRB6      30.06F
BAD AXE        SUNNY     72  33  23 CALM      30.06F
CARO           SUNNY     75  31  20 CALM      30.04F
DETROIT CITY   SUNNY     73  45  36 SE10      30.05F
6HR MIN TEMP:  52; 6HR MAX TEMP:  73;

DETROIT        SUNNY     74  43  32 VRB5      30.06F
6HR MIN TEMP:  52; 6HR MAX TEMP:  75;

FLINT          SUNNY     76  30  18 SE5       30.05F
6HR MIN TEMP:  50; 6HR MAX TEMP:  78;

GROSSE ILE     SUNNY     66  54  63 S7        30.05F
HILLSDALE      SUNNY     72  14  11 E7        30.06F
HOWELL         SUNNY     73  31  21 CALM      30.05F

CITY           SKY/WX    TMP DP  RH WIND       PRES   REMARKS
JACKSON        SUNNY     73  34  23 VRB5      30.05F
6HR MIN TEMP:  47; 6HR MAX TEMP:  74;

LAMBERTVILLE   SUNNY     74  43  32 CALM      30.06F
6HR MIN TEMP:  51; 6HR MAX TEMP:  75;

LANSING        SUNNY     74  41  30 NW6       30.06F
6HR MIN TEMP:  53; 6HR MAX TEMP:  75;

LAPEER         FAIR      73  20  13 CALM      30.05F
6HR MIN TEMP:  45; 6HR MAX TEMP:  74;

MASON          SUNNY     73  39  29 CALM      30.06F
MONROE         SUNNY     73  52  48 SE8       30.06F
6HR MIN TEMP:  50; 6HR MAX TEMP:  73;

MT. CLEMENS    SUNNY     71  46  40 E7        30.05F
6HR MIN TEMP:  51; 6HR MAX TEMP:  72;

PONTIAC        SUNNY     73  22  14 CALM      30.04F
6HR MIN TEMP:  50; 6HR MAX TEMP:  74;

PORT HOPE        N/A     57  42  57 E10       30.05F
6HR MIN TEMP:  54; 6HR MAX TEMP:  60;

PORT HURON     SUNNY     73  45  35 SW5       30.05F
TRI CITIES     SUNNY     75  39  27 SW3       30.04F
6HR MIN TEMP:  52; 6HR MAX TEMP:  75;

MIDLAND        FAIR      75  40  28 S5        30.03F
6HR MIN TEMP:  45; 6HR MAX TEMP:  76;

TROY           SUNNY     75  37  24 CALM      30.07F
SAGINAW HB     SUNNY     73  37  27 W3        30.04F
$$
MIZ043>046-050>051-056>058-064>065-071>073-077>080-231900-
SOUTHWEST LOWER MICHIGAN

CITY           SKY/WX    TMP DP  RH WIND       PRES   REMARKS
BATTLE CREEK   SUNNY     73  40  30 S5        30.06F
6HR MIN TEMP:  52; 6HR MAX TEMP:  73;

BENTON HARBOR  SUNNY     77  40  26 MISG      30.03F
6HR MIN TEMP:  55; 6HR MAX TEMP:  78;

BIG RAPIDS     SUNNY     76  38  24 W5        30.03F
6HR MIN TEMP:  46; 6HR MAX TEMP:  76;

COLDWATER      SUNNY     73  37  27 NE3       30.05F
6HR MIN TEMP:  49; 6HR MAX TEMP:  73;

FREMONT        FAIR      77  38  24 SW7G16    30.03F
6HR MIN TEMP:  54; 6HR MAX TEMP:  77;

HOLLAND        SUNNY     76  44  32 VRB3      30.04F
6HR MIN TEMP:  54; 6HR MAX TEMP:  77;

GRAND RAPIDS   MOSUNNY   80  42  25 W5        30.04F
6HR MIN TEMP:  54; 6HR MAX TEMP:  80;

IONIA          FAIR      74  40  28 SE3       30.04S
6HR MIN TEMP:  51; 6HR MAX TEMP:  75;

KALAMAZOO      SUNNY     76  40  27 CALM      30.05F
6HR MIN TEMP:  53; 6HR MAX TEMP:  76;

LUDINGTON      SUNNY     72  39  30 SW12      30.04S
6HR MIN TEMP:  53; 6HR MAX TEMP:  73;

MARSHALL       SUNNY     74  33  22 SW3       30.05F
6HR MIN TEMP:  49; 6HR MAX TEMP:  74;

MOUNT PLEASANT SUNNY     76  43  30 W3        30.03S
6HR MIN TEMP:  48; 6HR MAX TEMP:  76;

MUSKEGON       MOSUNNY   75  37  25 S13       30.04F
6HR MIN TEMP:  53; 6HR MAX TEMP:  75;

SOUTH HAVEN    SUNNY     76  44  32 NW6       30.04S
$$
MIZ016>042-231900-
NORTHERN LOWER MICHIGAN

CITY           SKY/WX    TMP DP  RH WIND       PRES   REMARKS
ALPENA         SUNNY     72  38  29 E13       30.01F
6HR MIN TEMP:  48; 6HR MAX TEMP:  74;

BEAVER ISLAND  SUNNY     73  40  30 SW13      30.00S
6HR MIN TEMP:  56; 6HR MAX TEMP:  74;

BELLAIRE       SUNNY     77  38  23 S8        30.00F
6HR MIN TEMP:  47; 6HR MAX TEMP:  77;

CADILLAC       SUNNY     78  37  22 W7        30.03S
CHARLEVOIX     SUNNY     76  39  26 W10       30.03F
6HR MIN TEMP:  55; 6HR MAX TEMP:  76;

FRANKFORT      SUNNY     71  41  33 SW12G18   30.02F
GAYLORD        SUNNY     78  33  19 SE8       30.01F
6HR MIN TEMP:  52; 6HR MAX TEMP:  79;

GRAYLING       SUNNY     80  37  20 W7        30.02F
HARBOR SPRINGS SUNNY     70  44  39 SW6       30.01S
HOUGHTON LAKE  SUNNY     76  38  25 W7        30.04F
6HR MIN TEMP:  48; 6HR MAX TEMP:  76;

MANISTEE       SUNNY     75  39  27 W13G18    30.03S
OSCODA         SUNNY     74  35  24 S10G18    30.02F
PELLSTON       SUNNY     77  34  21 SW10      29.99F
6HR MIN TEMP:  48; 6HR MAX TEMP:  78;

ROGERS CITY    SUNNY     70  40  33 NE9       30.01F
TRAVERSE CITY  SUNNY     80  39  23 VRB7      29.99F
6HR MIN TEMP:  54; 6HR MAX TEMP:  80;

$$
MIZ007>008-015-231900-
EASTERN UPPER MICHIGAN

CITY           SKY/WX    TMP DP  RH WIND       PRES   REMARKS
KINROSS          N/A     75  36  23 S7        29.98F
6HR MIN TEMP:  54; 6HR MAX TEMP:  75;

MACKINAC ISLAN SUNNY     67  42  39 W8        30.00F
6HR MIN TEMP:  57; 6HR MAX TEMP:  67;

NEWBERRY       SUNNY     70  43  37 S14G23    29.96F
6HR MIN TEMP:  55; 6HR MAX TEMP:  72;

S. S. MARIE    SUNNY     78  38  23 S6        29.96F
6HR MIN TEMP:  50; 6HR MAX TEMP:  78;

MUNISING         N/A     82  44  26 S15G28    29.88F
6HR MIN TEMP:  60; 6HR MAX TEMP:  82;

$$
MIZ004>006-011>014-085-231900-
CENTRAL UPPER MICHIGAN

CITY           SKY/WX    TMP DP  RH WIND       PRES   REMARKS
MANISTIQUE     SUNNY     58  47  68 S15G21    29.98S
6HR MIN TEMP:  52; 6HR MAX TEMP:  58;

ESCANABA       CLOUDY    64  48  55 S14       29.94F
6HR MIN TEMP:  50; 6HR MAX TEMP:  66;

MENOMINEE      MOSUNNY   76  52  43 SE12      29.95F
6HR MIN TEMP:  56; 6HR MAX TEMP:  78;

SAWYER-GWINN   SUNNY     81  43  26 SW25G35   29.90F
$$
MIZ001>003-009>011-084-231900-
WESTERN UPPER MICHIGAN

CITY           SKY/WX    TMP DP  RH WIND       PRES   REMARKS
IRON MOUNTAIN  CLOUDY    83  40  21 SW18G29   29.89F
6HR MIN TEMP:  60; 6HR MAX TEMP:  84;

HOUGHTON       CLOUDY    83  41  22 S22G29    29.77F
6HR MIN TEMP:  61; 6HR MAX TEMP:  83;

COPPER HARBOR    N/A     80  44  27 SW16G29   29.77F
6HR MIN TEMP:  65; 6HR MAX TEMP:  80;

IRONWOOD       SUNNY    N/A N/A N/A S22G28    29.74F
$$

ABBREVIATIONS USED IN REMARKS
   TC - TEMPERATURE IN CELSIUS
  WCI - WIND CHILL INDEX
   HX - HEAT INDEX
  VSB - VISIBILITY





USA.gov is the U.S. government's official web portal to all federal, state and local government web resources and services.